Flag for U.S.A. Weather past 2 weeks in Lansing, Michigan, U.S.A.

Now
50 °F

Clear.


Feels Like: 48 °F
Forecast: 52 / 70 °F
Wind: 5 mph from West

Location: Capital City Airport

Current Time: Jul 29, 2014 at 1:32:31 AM

Latest Report: Jul 29, 2014 at 12:53 AM


Visibility: 10 mi

Pressure: 30.02 "Hg

Humidity: 89%

Dew point: 47 °F

Location of LansingLocation

Historic Weather in Lansing — Graph

°F

Lansing temperature yesterday

Maximum temperature yesterday: 68 °F (at 4:53 PM)
Minimum temperature yesterday: 50 °F (at 11:53 PM)
Average temperature yesterday: 61 °F

Past Weeks' High & Low Weather Summary

 TemperatureHumidityPressure
High84 °F (Jul 21, 5:53 PM)97% (Jul 27, 7:53 AM)30.23 "Hg (Jul 27, 7:53 AM)
Low50 °F (Jul 28, 11:53 PM)39% (Jul 17, 5:53 PM)29.60 "Hg (Jul 27, 4:53 PM)
Average67 °F71%29.99 "Hg
* Reported Jul 13 11:53 PM — Jul 28 11:53 PM, Lansing, Weather by CustomWeather, © 2014

Note: Actual official high and low records may vary slightly from our data, if they occured in-between our weather recording intervals... More about our weather records

Advertising

Lansing weather history for previous 24 hours

 ConditionsComfort  
Time TempWeatherWind HumidityBarometerVisibility
11:53 PM
Jul 28
50 °FPassing clouds.No wind93%30.03 "Hg10 mi
10:53 PM52 °FClear.No wind86%30.03 "Hg10 mi
9:53 PM55 °FSunny.3 mph74%30.03 "Hg10 mi
8:53 PM58 °FPassing clouds.5 mph65%30.02 "Hg10 mi
7:53 PM62 °FOvercast.12 mph58%30.01 "Hg10 mi
6:53 PM65 °FMostly cloudy.13 mph56%30.00 "Hg10 mi
5:53 PM67 °FMore clouds than sun.10 mph55%29.98 "Hg10 mi
4:53 PM68 °FPartly sunny.9 mph53%29.97 "Hg10 mi
3:53 PM67 °FOvercast.10 mph57%29.96 "Hg10 mi
2:53 PM65 °FMore clouds than sun.8 mph66%29.96 "Hg10 mi
1:53 PM65 °FOvercast.10 mph63%29.96 "Hg10 mi
12:53 PM64 °FMore clouds than sun.7 mph70%29.97 "Hg10 mi
11:53 AM62 °FMostly cloudy.9 mph75%29.96 "Hg10 mi
10:53 AM62 °FOvercast.9 mph73%29.95 "Hg10 mi
9:53 AM61 °FMostly cloudy.10 mph81%29.93 "Hg10 mi
8:53 AM61 °FOvercast.12 mph83%29.92 "Hg10 mi
7:53 AM60 °FPassing clouds.7 mph86%29.89 "Hg10 mi
6:53 AM60 °FMostly cloudy.8 mph90%29.87 "Hg10 mi
5:53 AM60 °FMostly cloudy.7 mph90%29.83 "Hg10 mi
4:53 AM62 °FMostly cloudy.9 mph90%29.80 "Hg10 mi
3:53 AM62 °FMostly cloudy.10 mph90%29.78 "Hg10 mi
3:02 AM63 °FMostly cloudy.14 mph87%29.78 "Hg10 mi
2:53 AM62 °FMostly cloudy.12 mph90%29.77 "Hg10 mi
1:53 AM61 °FMostly cloudy.9 mph93%29.77 "Hg10 mi
Weather by CustomWeather, © 2014

See weather overviewHow to use our weather pages